Location: Ago
(8.4667°N, 4.4833°E)
Time: 23:57:55
(UTC+00:00)

ATLAS 2AS CENTAUR R/B - Pass Details

Date: 18 September 2020
Orbit: 939 x 1273 km, 63.7° (Epoch: 19 October)

Event Time Altitude Azimuth Distance (km) Brightness Sun altitude
Rises 18:59:59 0° 194° (SSW) 4,008 5.8 -20.5°
Reaches altitude 10° 19:02:40 10° 191° (S) 3,090 5.2 -21.2°
Maximum altitude 19:10:03 62° 112° (ESE) 1,364 2.9 -23.0°
Enters shadow 19:16:56 14° 34° (NE) 2,955 4.7 -24.7°
